Reflectivity
-16 7 31 28 31 34 37 9 34 15 16 -20 -20 -20 -20 -20 -20 -19 -20 -20 -20 -20 -20 -20 -20 -20 -20 -20 -20 -20 -20 -20 -20 -20 -20 -20 -20 -20 -20 -20 -20 -20 -20
-20 -20 11 30 28 28 34 34 28 35 36 35 23 26 13 -2 -17 4 17 -19 -20 -20 -20 -20 -20 -20 -20 -20 -20 -20 -20 3 6 7 17 3 -20 -20 -20 -20 -20 -20 -20
-20 -20 -20 29 32 33 34 16 12 -7 21 27 36 31 24 28 3 -0 -7 -20 -20 -4 -20 2 -20 -20 -20 -20 -20 -20 -16 24 24 16 17 5 -1 13 3 21 15 0 -14
-20 -20 -20 -20 -6 17 30 31 25 -2 2 25 30 36 22 31 34 31 36 3 -18 -6 -20 -10 -20 -12 6 -9 8 19 21 5 28 29 31 23 20 23 10 9 32 3 5
-20 -20 -20 -20 -20 -20 -15 -8 23 38 -14 -2 20 -6 -1 -7 -6 35 -4 -20 -20 -18 1 -20 32 31 31 30 22 36 43 35 28 24 26 19 19 16 24 7 22 20 12
-20 -20 -20 -20 -20 -20 -8 -20 -14 -15 26 -7 2 10 -6 -16 -15 -13 -11 -10 29 36 35 37 29 20 25 25 24 19 19 36 19 27 31 33 24 12 24 27 25 22 16
27 -17 -20 -20 -20 -20 -20 -20 -20 -9 -20 31 2 -20 -20 -20 -20 -20 -18 -13 11 -15 5 8 2 -16 -11 -14 -20 -5 -19 -13 -3 9 25 7 9 12 23 28 19 4 27
18 -4 -20 -20 -20 -20 -20 19 -20 4 -20 -20 -20 -20 -20 -20 -20 -20 -13 -20 -20 -20 -20 -20 -20 -20 -20 -20 -20 -20 -20 -20 -20 -19 13 0 -4 4 12 2 -19 1 -15
8 -8 -20 -20 -20 -20 -20 -20 -20 -20 -20 -20 -20 -20 -20 -13 -20 -20 -20 -20 -20 -20 -20 -20 -20 -20 -20 -20 -20 -20 -20 -20 -20 -20 -20 -20 -7 -18 21 9 16 2 -10
6 -0 -20 -20 -20 -20 -20 -20 5 -20 -2 -18 -20 -20 -4 24 -20 -20 -20 -20 -20 -20 -20 -20 -20 -20 -20 -20 -20 -20 -20 -20 -20 -20 -19 -20 -20 -20 -11 10 -15 -17 -12
-20 -11 -6 -15 -7 -20 -20 -20 -13 -20 -20 -20 -20 3 -20 20 -20 -20 -20 -20 -20 -20 -20 -20 -20 -20 -20 -20 -20 -20 -20 -20 -20 -20 -20 -20 -20 -20 -20 10 8 17 17
-18 0 -3 -15 -4 -20 -20 -20 -20 -20 -20 -20 -2 -20 -20 -20 -20 -20 -20 -20 -20 -20 -20 -20 -20 -20 -20 -20 -20 -20 -20 -20 -20 -20 -20 -20 -20 -20 6 -12 -20 4 7
-20 -20 -11 -8 -12 -20 -20 -20 -20 -20 -20 -20 -20 -14 -20 -20 -20 -20 -20 -20 -20 -20 -20 -20 -20 -20 -20 -20 -20 -20 -20 -20 -20 -20 -20 -20 -20 -20 -20 -16 2 -2 -20
-20 -20 -20 -20 -20 -20 -20 -20 -20 -20 -20 -20 -20 -20 -20 -20 -20 -20 -20 -20 -20 -20 -20 -20 -20 -20 -20 -20 -20 -20 -20 -20 -20 -20 -20 -20 -20 -20 -20 -20 -20 -15 9
-20 -20 -20 -20 -20 -20 4 -20 -20 -20 -20 -20 -20 -20 -20 -20 -20 -20 -20 -20 -20 -20 -20 -20 -20 -20 -20 -20 -20 -20 -20 -20 -20 -20 -20 -20 -20 -20 -17 -14 -20 -7 12
-20 -20 -20 -20 -20 -20 -20 -20 -20 -20 -20 -20 -20 -20 -20 -20 -20 -20 -20 -20 -20 -20 -20 -20 -20 -20 -20 -20 -20 -20 -20 -20 -20 -20 -20 -20 -20 -20 -20 1 4 9 -9
-20 -20 -20 -20 -20 -20 -20 -20 -20 -20 -20 -20 -20 -20 -20 -20 -20 -20 -20 -20 -20 -20 -20 -20 -20 -20 -20 -20 -20 -20 -20 -20 -20 -20 -20 -20 -20 -2 -16 9 -2 -8 0
-20 -20 -20 -20 -20 -20 -20 -20 -20 -20 -20 -20 -20 -20 -20 -20 -20 -20 -20 -20 -20 -20 -20 -13 -20 -20 -20 -20 -20 2 -20 -20 -20 -20 -20 -20 2 11 7 -6 -20 -20 -20
-20 -20 -20 -20 -20 -20 -20 -20 -20 -20 -20 -20 -20 -20 -20 -20 -20 -20 -20 -20 -20 -20 -20 -20 -20 -20 -20 -20 -20 -20 -20 -20 -20 -20 -20 -20 -15 17 12 -15 -20 -20 -20
-20 -20 -20 -20 -20 -20 -20 -20 -20 -20 -20 -20 -20 -20 -20 -20 -20 -20 -20 -20 -20 -20 -20 -20 -20 -19 -20 -20 -20 -9 -20 -20 -20 -20 -20 3 8 19 11 -7 -20 -20 -15
-20 -20 -20 -20 -20 -20 -20 -20 -20 -20 -20 -20 -20 -20 -20 -20 -20 -20 -20 -20 -20 -20 -20 -20 -20 -20 -20 -20 -19 -5 -19 -20 -20 -20 -20 -15 18 12 9 10 -18 -12 -20
-20 -20 -20 -20 -20 -20 -20 -20 -20 -20 -16 -12 -20 -20 -20 -20 -20 -20 -20 -20 -20 -20 -20 -20 -20 -20 -20 -20 -1 -2 -6 -18 -20 -20 -20 -12 3 2 0 6 9 0 -17
-20 -20 -20 -20 -20 -20 -20 -20 -20 -20 -20 -20 -20 -20 -20 -20 -20 -20 -20 -20 -20 -20 -20 -20 -20 -20 -20 -20 -20 -1 5 3 -11 -20 -20 -15 -17 -5 -6 6 -4 -1 -20
-20 -20 -20 -20 -20 -3 -16 -20 -20 -20 -20 -20 -20 -20 -20 -20 -20 -20 -20 -20 -20 -20 -20 -20 -20 -20 -20 -20 -20 -20 -19 4 -4 -20 -20 -20 -20 -17 -20 -20 -20 -20 -20
-20 -20 -20 -20 -20 -20 -20 -20 -20 -20 -20 -20 -20 -20 -20 -20 -20 -20 -20 -20 -20 -20 -20 -20 -20 -20 -20 -20 -20 -19 -19 -20 -20 -20 -20 -20 -20 -20 -11 6 -20 -20 -20
-20 -20 -20 -20 -20 -20 -20 -20 -20 -20 -20 -20 -20 -20 -20 -20 -20 -20 -20 -8 13 14 -20 -20 -20 -20 -20 -20 -12 0 -12 -20 -17 -20 -20 -20 -20 -20 -4 -17 7 -2 -20
Wind_Speed
5 2 5 9 7 5 10 13 13 12 9 8 8 5 6 3 3 4 6 8 8 10 8 5 5 5 5 5 5 3 5 3 2 1 2 3 4 4 3 3 3 3 3
9 7 4 7 13 12 10 10 12 12 10 7 6 3 4 2 5 4 5 6 5 6 6 6 5 5 4 5 6 5 3 3 3 2 1 3 3 3 4 3 1 3 3
8 7 3 9 9 10 10 9 10 12 10 9 6 4 5 2 3 2 3 5 7 6 7 7 6 6 4 4 1 2 3 3 1 1 2 1 3 2 3 4 3 2 4
7 6 5 5 6 8 6 6 8 10 8 10 7 8 7 4 4 4 2 2 5 5 5 4 4 3 3 3 5 2 3 2 3 2 4 3 2 2 2 1 3 2 3
12 11 8 7 7 6 7 5 6 6 6 8 8 5 4 3 3 2 7 4 4 4 5 4 4 4 3 4 4 4 7 1 1 3 2 3 3 2 3 3 3 1 3
19 14 6 5 3 2 5 6 7 5 7 7 6 7 8 6 5 4 4 4 1 3 3 3 3 3 3 5 6 7 8 8 6 3 3 3 3 3 3 4 4 4 2
15 8 8 7 6 6 6 5 6 5 5 6 6 6 6 7 8 7 4 4 3 2 4 4 3 2 1 2 3 3 3 3 2 5 5 6 5 4 5 4 4 4 3
11 9 8 7 8 8 5 5 7 7 6 5 6 5 7 5 5 6 4 4 3 3 4 5 4 3 3 3 2 2 3 3 4 6 4 4 4 4 6 8 5 2 3
6 8 7 7 7 7 8 8 8 7 6 6 6 6 6 6 6 6 4 4 4 3 5 5 3 1 1 1 1 2 3 3 3 4 4 5 4 4 6 5 4 4 4
4 5 4 5 6 6 6 5 4 5 5 6 5 5 5 4 5 5 5 5 4 4 5 4 4 3 3 3 3 2 2 3 3 3 5 5 3 3 3 4 4 3 4
6 7 6 2 4 5 7 5 6 6 5 5 4 5 5 5 5 5 5 4 4 5 4 3 4 4 4 3 3 2 3 3 4 3 4 5 5 3 2 3 1 2 2
5 4 7 7 7 7 7 7 5 6 6 6 5 6 6 6 6 6 6 6 6 5 5 4 4 4 4 4 4 3 3 4 5 4 3 5 3 4 4 2 3 2 1
3 4 4 3 6 7 7 6 6 6 6 7 7 6 6 7 6 6 6 6 6 5 4 5 4 4 4 5 4 4 5 5 4 5 4 4 3 4 2 2 2 1 1
5 4 4 3 3 4 6 6 5 6 6 7 7 7 7 7 6 6 6 6 5 5 5 5 4 5 5 5 5 5 5 5 5 5 5 4 4 4 3 2 2 1 1
4 4 2 4 4 6 5 5 5 6 6 7 7 6 6 6 6 6 6 6 6 6 5 5 4 3 3 3 4 5 5 5 5 5 5 5 6 6 3 1 2 2 2
3 3 2 4 5 5 5 5 5 6 6 6 7 6 7 6 6 6 5 6 6 6 5 4 3 3 3 5 6 5 4 4 5 5 5 5 6 6 4 2 3 4 3
2 3 4 4 5 6 6 6 6 5 6 6 5 6 6 7 6 6 6 5 5 4 4 4 3 3 3 5 6 6 3 3 4 4 4 4 2 3 2 5 6 1 4
7 6 2 4 3 4 4 6 6 6 6 6 6 5 6 6 6 6 5 4 3 3 3 1 2 3 3 6 6 4 4 4 4 4 4 4 3 2 2 2 3 3 3
5 5 5 4 5 6 6 6 6 6 5 6 6 6 6 6 6 6 5 3 3 2 2 1 2 3 4 6 6 2 3 4 5 4 4 3 3 4 4 2 3 2 3
6 7 6 3 6 6 6 7 6 6 5 6 6 6 6 6 6 6 5 2 2 3 2 2 3 5 4 6 5 2 1 4 3 3 4 5 3 5 4 3 3 3 0
7 7 6 3 2 6 6 6 5 6 5 5 5 5 5 6 6 5 3 3 3 3 0 3 3 5 4 4 7 7 3 2 3 2 3 3 6 6 7 5 3 4 4
7 7 6 6 5 4 6 6 5 3 5 5 6 6 6 4 5 6 4 3 4 3 3 3 4 3 4 7 8 9 9 6 3 3 2 3 7 8 7 5 6 6 6
5 5 5 6 6 6 3 4 2 4 5 5 4 4 5 5 5 5 5 3 3 3 3 3 3 3 3 4 10 11 11 8 3 3 6 9 9 9 5 6 6 8 4
5 4 6 7 7 6 6 5 4 4 4 4 4 4 5 4 4 3 4 4 3 3 3 3 4 4 3 3 3 4 4 6 5 5 5 5 7 7 5 4 3 2 4
5 4 5 5 5 6 6 5 4 4 4 3 3 4 4 5 5 4 4 4 4 5 4 4 4 3 4 4 7 6 4 4 5 3 1 1 2 2 2 2 3 2 3
4 5 5 5 5 6 6 6 5 4 3 1 2 3 3 3 3 3 3 8 9 10 13 13 9 4 11 12 11 10 13 13 12 3 3 3 4 4 4 4 4 3 5
Wind_Direction
329 327 227 153 155 192 176 171 176 175 164 164 164 157 165 149 148 161 178 175 178 170 169 178 170 164 178 193 187 176 189 214 165 65 315 283 246 250 274 278 280 285 271
342 324 197 190 179 186 187 177 168 160 171 175 174 150 143 166 150 170 211 171 188 168 167 162 164 175 169 194 195 192 174 163 180 147 114 316 337 48 23 345 343 37 43
306 310 241 207 181 186 181 168 172 167 168 153 137 109 95 72 66 164 171 190 185 175 166 166 178 181 178 187 197 236 257 129 90 184 166 140 245 1 7 20 6 80 104
298 275 247 215 190 190 164 166 177 166 154 159 155 164 183 189 151 200 124 129 127 132 148 168 153 176 167 180 152 163 220 145 189 206 226 230 215 202 313 58 64 2 103
282 285 227 222 221 164 176 168 155 176 148 167 173 160 124 132 115 135 139 160 138 159 144 146 243 223 183 185 177 219 211 236 249 207 173 210 208 223 215 254 175 238 232
276 271 256 204 188 135 156 151 170 152 148 146 167 163 155 153 132 131 161 201 186 164 185 191 206 227 231 196 207 205 179 193 176 195 231 198 185 189 199 238 223 214 179
224 248 197 171 166 180 173 155 155 147 150 170 162 164 166 159 155 148 163 164 177 220 183 155 175 144 87 90 137 204 182 211 202 191 221 215 210 184 226 221 227 193 168
196 214 204 183 175 175 160 180 165 169 154 169 173 159 162 151 144 156 162 156 144 123 111 111 132 156 160 165 195 259 280 263 258 247 220 239 232 224 224 233 207 213 187
196 216 191 175 168 155 183 187 165 172 168 173 150 168 145 164 150 135 120 137 130 134 141 155 167 181 237 266 332 280 272 302 305 276 273 266 251 241 242 229 213 211 197
217 231 233 180 192 174 151 137 148 154 163 152 141 134 138 139 131 132 145 149 131 126 126 121 118 100 69 40 16 334 341 323 297 299 306 290 272 264 253 240 227 198 212
205 208 227 200 168 123 132 154 160 144 135 115 103 119 114 120 110 113 111 116 86 93 97 102 95 95 89 61 51 359 328 294 288 282 286 295 303 293 293 287 276 229 209
356 222 201 183 154 145 152 165 149 136 135 123 122 109 110 103 96 95 90 87 91 80 103 106 114 106 80 50 34 357 328 313 309 298 297 286 304 299 304 279 266 235 175
39 26 109 157 163 151 145 150 147 137 127 119 114 113 114 110 106 102 104 103 102 88 75 77 72 68 52 42 24 357 334 318 306 307 307 295 279 283 279 285 230 145 108
21 42 58 113 130 121 124 119 121 123 117 118 123 127 128 123 118 115 110 108 111 104 87 75 73 57 50 40 21 1 347 338 348 352 349 336 325 298 292 263 240 140 157
40 41 87 99 98 105 115 118 122 117 130 121 117 133 121 114 114 107 113 114 97 89 86 82 66 61 67 43 30 20 360 349 339 355 1 355 346 333 310 263 248 187 178
58 66 91 100 120 133 133 125 128 135 129 129 136 134 121 122 116 127 129 101 98 95 95 86 77 43 27 16 13 16 358 346 342 329 330 335 345 339 310 286 266 223 192
30 164 219 203 175 173 162 162 148 124 126 121 124 131 132 123 136 122 103 110 109 108 95 61 33 17 354 348 347 356 3 340 319 306 301 303 319 1 31 58 54 17 261
8 1 261 225 201 154 141 129 132 132 131 149 142 132 132 134 126 120 130 120 110 117 119 75 347 327 320 337 341 10 7 339 321 306 290 283 282 288 170 101 57 22 10
322 306 293 227 169 163 159 143 139 144 146 152 156 155 152 147 140 149 154 140 134 125 125 48 337 315 310 331 324 336 341 321 312 309 290 277 263 254 203 150 134 73 12
329 321 316 223 159 164 146 142 152 156 170 179 174 160 158 154 163 160 158 158 148 158 100 307 301 288 292 300 303 241 332 313 322 309 300 287 259 257 201 188 179 167 106
352 346 18 84 172 141 144 150 148 182 193 166 157 157 167 168 161 151 144 166 141 111 138 277 279 275 269 282 286 289 200 250 288 282 295 294 278 259 253 194 211 207 154
7 6 37 44 27 111 139 149 180 179 169 162 159 168 164 153 148 151 153 164 158 179 227 250 275 271 258 265 274 279 275 219 208 258 268 276 274 262 253 213 222 231 165
17 19 43 62 44 43 81 142 164 147 137 137 149 147 143 159 157 158 167 159 181 209 223 236 255 264 263 255 263 271 266 260 219 220 258 257 254 252 245 236 227 229 146
22 18 50 48 43 32 49 64 68 86 117 136 145 145 157 160 169 175 169 178 192 212 221 231 246 250 255 254 247 243 256 277 250 225 262 254 243 234 206 232 292 160 169
33 34 37 50 42 41 49 45 61 93 111 127 156 180 185 188 190 195 188 201 204 196 212 229 229 239 257 248 255 242 226 216 226 213 199 220 217 219 221 226 218 188 200
34 41 40 46 33 48 43 27 26 41 78 103 193 213 207 199 195 198 233 231 233 234 242 249 239 233 252 270 277 274 254 245 239 202 197 208 206 211 212 217 226 201 212